Location: Chmeln�
(49.6483°N, 14.9871°E)
Time: 04:49:13
(UTC+00:00)

Okean 1 Rocket - Pass Details

Date: 18 September 2020
Orbit: 605 x 635 km, 82.5° (Epoch: 29 October)

Event Time Altitude Azimuth Distance (km) Brightness Sun altitude
Exits shadow 19:51:19 46° 232° (SW) 852 3.7 -25.7°
Maximum altitude 19:52:20 60° 283° (WNW) 735 3.6 -25.8°
Drops below altitude 10° 19:56:49 10° 3° (N) 2,035 6.1 -26.4°
Sets 19:59:06 0° 8° (N) 2,948 7.0 -26.7°
